Content
SEND FEEDBACK

Daily
Averages
Monthly
Summary
United States of America

NEVADA CITY, CALIFORNIA


Home > North America > United States > California
Elevation: 2934 feet     Latitude: 39 18N     Longitude: 121 00W

WEATHER
 
SELECT A DAY
Number of Records: 71,593;   Date Range: 9/21/11 - 12/25/14
 
SHARE

PRINT THIS DATA

[ ← Previous Day ]
WEATHER ALMANAC - JUNE 24, 2013
[ Next Day → ]
[ °C ]   °F
We're sorry. There is no daily almanac available for Nevada City, California on June 24, 2013.
WEATHER BY HOUR - JUNE 24, 2013
[ °C ]   °F
Local TimeTemperatureDewpointHumidityBarometerVisibilityWind DirectionWind SpeedGust SpeedPrecipitationEventsConditions
12:35 AM57.2 °F55.4 °F94 %29.86 in10.0 miSSE (160°)4.6 mphOvercast
12:55 AM57.2 °F55.4 °F94 %29.86 in10.0 miSSE (150°)6.9 mphOvercast
1:15 AM57.2 °F55.4 °F94 %29.85 in10.0 miSSE (150°)5.8 mphOvercast
1:35 AM55.4 °F53.6 °F94 %29.85 in10.0 miSSE (160°)6.9 mphOvercast
1:55 AM55.4 °F53.6 °F94 %29.84 in10.0 miSE (140°)4.6 mphOvercast
2:15 AM55.4 °F53.6 °F94 %29.84 in10.0 miSE (140°)4.6 mphOvercast
2:35 AM55.4 °F53.6 °F94 %29.84 in10.0 miSE (140°)4.6 mphOvercast
2:55 AM55.4 °F53.6 °F94 %29.84 in10.0 miSSE (150°)6.9 mphOvercast
3:15 AM55.4 °F53.6 °F94 %29.84 in10.0 miSE (140°)3.5 mphOvercast
3:35 AM55.4 °F53.6 °F94 %29.83 in10.0 miSouth (170°)5.8 mphOvercast
3:55 AM55.4 °F53.6 °F94 %29.83 in10.0 miCalmOvercast
4:15 AM55.4 °F53.6 °F94 %29.83 in10.0 miSouth (180°)3.5 mphOvercast
4:35 AM55.4 °F53.6 °F94 %29.84 in10.0 miCalmOvercast
4:55 AM55.4 °F53.6 °F94 %29.85 in10.0 miSouth (190°)3.5 mphOvercast
5:15 AM55.4 °F53.6 °F94 %29.84 in10.0 miCalmOvercast
5:35 AM55.4 °F53.6 °F94 %29.84 in10.0 miCalmOvercast
5:55 AM55.4 °F53.6 °F94 %29.85 in10.0 miSouth (170°)4.6 mphOvercast
6:15 AM53.6 °F51.8 °F94 %29.85 in10.0 miCalmOvercast
6:35 AM53.6 °F51.8 °F94 %29.85 in10.0 miCalmOvercast
6:55 AM53.6 °F51.8 °F94 %29.86 in10.0 miSouth (170°)3.5 mphOvercast
7:15 AM53.6 °F51.8 °F94 %29.86 in10.0 miSSE (160°)6.9 mphOvercast
7:35 AM53.6 °F51.8 °F94 %29.87 in10.0 miSouth (170°)4.6 mphOvercast
7:55 AM53.6 °F51.8 °F94 %29.87 in8.0 miCalmOvercast
8:15 AM53.6 °F51.8 °F94 %29.88 in5.0 miCalmOvercast
8:35 AM53.6 °F53.6 °F100 %29.89 in3.0 miSouth (180°)3.5 mphOvercast
8:55 AM53.6 °F53.6 °F100 %29.90 in3.0 miCalm0.01 inOvercast
9:15 AM53.6 °F53.6 °F100 %29.90 in3.0 miCalmOvercast
9:35 AM53.6 °F53.6 °F100 %29.90 in5.0 miSSE (150°)4.6 mph0.01 inOvercast
9:55 AM53.6 °F53.6 °F100 %29.90 in9.0 miSSE (150°)4.6 mph0.01 inOvercast
10:15 AM53.6 °F53.6 °F100 %29.91 in5.0 miCalm0.01 inOvercast
10:35 AM53.6 °F53.6 °F100 %29.91 in4.0 miSSE (150°)4.6 mph0.01 inOvercast
10:55 AM53.6 °F53.6 °F100 %29.92 in4.0 miSSE (160°)3.5 mph0.01 inOvercast
11:15 AM53.6 °F53.6 °F100 %29.93 in5.0 miCalm0.01 inOvercast
11:35 AM53.6 °F51.8 °F94 %29.93 in3.0 miSSW (210°)5.8 mph0.02 inOvercast
11:55 AM53.6 °F53.6 °F100 %29.93 in5.0 miCalm0.03 inOvercast
12:15 PM53.6 °F53.6 °F100 %29.93 in4.0 miSouth (190°)3.5 mphMostly Cloudy
12:35 PM53.6 °F53.6 °F100 %29.94 in3.0 miSSW (200°)3.5 mph0.01 inOvercast
12:55 PM53.6 °F53.6 °F100 %29.93 in3.0 miSSE (150°)6.9 mph0.02 inOvercast
1:15 PM53.6 °F53.6 °F100 %29.94 in2.5 miCalm0.03 inMostly Cloudy
1:35 PM53.6 °F53.6 °F100 %29.94 in3.0 miSSE (160°)4.6 mph0.05 inOvercast
1:55 PM53.6 °F53.6 °F100 %29.94 in2.5 miSSE (160°)5.8 mph0.08 inOvercast
2:15 PM53.6 °F53.6 °F100 %29.94 in1.2 miSSE (160°)3.5 mph0.05 inOvercast
2:35 PM53.6 °F53.6 °F100 %29.93 in4.0 miSE (140°)5.8 mph17.3 mph0.07 inOvercast
2:55 PM53.6 °F53.6 °F100 %29.94 in3.0 miSouth (180°)5.8 mph0.08 inOvercast
3:15 PM53.6 °F53.6 °F100 %29.95 in4.0 miSouth (190°)3.5 mphOvercast
3:35 PM53.6 °F53.6 °F100 %29.95 in3.0 miSSW (200°)6.9 mph0.01 inOvercast
3:55 PM53.6 °F53.6 °F100 %29.96 in6.0 miCalm0.02 inOvercast
4:15 PM53.6 °F53.6 °F100 %29.96 in4.0 miCalmOvercast
4:35 PM53.6 °F53.6 °F100 %29.96 in4.0 miSouth (190°)5.8 mph0.01 inOvercast
4:55 PM53.6 °F53.6 °F100 %29.95 in8.0 miSSE (160°)5.8 mph0.01 inOvercast
5:15 PM53.6 °F53.6 °F100 %29.95 in4.0 miSSE (150°)6.9 mphOvercast
5:35 PM53.6 °F53.6 °F100 %29.94 in3.0 miSE (130°)6.9 mph16.1 mphOvercast
5:55 PM53.6 °F53.6 °F100 %29.95 in4.0 miSE (130°)5.8 mph0.01 inOvercast
6:15 PM53.6 °F51.8 °F94 %29.95 in1.8 miSE (130°)5.8 mphOvercast
6:35 PM53.6 °F51.8 °F94 %29.95 in2.0 miESE (120°)6.9 mph0.02 inOvercast
6:55 PM53.6 °F51.8 °F94 %29.95 in1.8 miSE (140°)5.8 mph0.04 inOvercast
7:15 PM51.8 °F51.8 °F100 %29.95 in1.2 miSE (130°)5.8 mph0.02 inOvercast
7:55 PM51.8 °F51.8 °F100 %29.94 in1.0 miSE (130°)4.6 mph0.06 inOvercast
8:15 PM53.6 °F51.8 °F94 %29.95 in0.2 miSSE (150°)5.8 mphOvercast
8:35 PM53.6 °F53.6 °F100 %29.95 in0.2 miCalm0.01 inOvercast
8:55 PM53.6 °F53.6 °F100 %29.95 in0.2 miSSE (150°)4.6 mph0.02 inOvercast
9:15 PM53.6 °F53.6 °F100 %29.95 in0.2 miCalm0.01 inOvercast
9:35 PM53.6 °F53.6 °F100 %29.96 in0.5 miCalm0.03 inOvercast
9:55 PM53.6 °F53.6 °F100 %29.96 in0.2 miCalm0.05 inOvercast
10:15 PM53.6 °F53.6 °F100 %29.97 in0.5 miCalm0.02 inOvercast
10:35 PM53.6 °F53.6 °F100 %29.97 in0.5 miSSE (160°)4.6 mph0.05 inOvercast
10:55 PM53.6 °F53.6 °F100 %29.98 in1.0 miSSW (200°)5.8 mph0.08 inOvercast
11:15 PM53.6 °F53.6 °F100 %29.98 in2.5 miSouth (190°)4.6 mphOvercast
11:35 PM53.6 °F53.6 °F100 %29.98 in1.8 miCalm0.01 inOvercast
11:55 PM51.8 °F51.8 °F100 %29.97 in2.0 miCalm0.01 inOvercast
Hourly data recorded from KGOO, located miles away from Nevada City, California







STORIES FROM OUR PARTNERS